Погода в Осиновском

Россия / Саратовская область     51°34′34″N   46°48′23″E
темп.,
°C
ветер,
м/с
пор.,
м/с
влажн.,
%
обл.,
%
осадки,
мм/ч
давл.,
гПа
погр.,
м
16 октября, сб
сб1601:00+7зюз22571 0.0 102517
04:00+6з12635 0.0 102510
07:00+5ююз11687 0.0 102510
10:00+9ю22517 0.0 1025273
13:00+13ю333891 0.0 10241132
16:00+13ю233522 0.0 10221193
19:00+9ююв22475 0.0 102210
22:00+8юв3357100 0.0 102123
17 октября, вс
вс1701:00+8юв2257100 0.0 102026
04:00+9вюв2257100 0.0 102022
07:00+8всв3361100 0.0 101945
10:00+11в3455100 0.0 1019246
13:00+14вюв3341100 0.0 1018546
16:00+12ююв2351100 0.0 1017157
19:00+11юв2368100 0.1 101747
22:00+11юв2457100 0.1 101694
18 октября, пн
пн1801:00+11ююв1254100 0.0 101518
04:00+11зсз0053100 0.0 101410
07:00+9всв1170100 0.4 101423
10:00+9з0183100 1.3 101472
13:00+12ю2271100 0.1 1013405
16:00+15юз235973 0.1 1011880
19:00+11юз2265100 0.0 101212
22:00+9сз356886 0.0 101295
19 октября, вт
вт1901:00+8зсз3369100 0.0 101245
04:00+7з237290 0.0 101235
07:00+6з3376100 0.0 101237
10:00+9з3560100 0.0 1012308
13:00+11з4550100 0.0 10121013
16:00+10з5660100 0.0 10111288
19:00+7з3478100 0.2 101298
22:00+5ссз5787100 0.3 1013656
20 октября, ср
ср2001:00+3сз37902 0.0 1014192
04:00+2зсз36865 0.0 1014130
07:00+1сз510915 0.0 1016285
10:00+4ссз686818 0.0 1018828
13:00+7ссз674989 0.0 10191587
16:00+7ссз7846100 0.0 10201630
19:00+3с59687 0.0 1023418
22:00+4ссз6858100 0.0 10241318